Location: Bednik
(45.3500°N, 16.3833°E)
Time: 06:27:06
(UTC+00:00)

IRIDIUM 104 - Pass Details

Date: 08 August 2020
Orbit: 776 x 779 km, 86.4° (Epoch: 23 September)

Event Time Altitude Azimuth Distance (km) Brightness Sun altitude
Rises 19:23:30 0° 184° (S) 3,248 7.2 -11.7°
Reaches altitude 10° 19:25:51 10° 185° (S) 2,325 6.5 -12.0°
Maximum altitude 19:31:03 82° 273° (W) 794 4.4 -12.7°
Drops below altitude 10° 19:36:19 10° 2° (N) 2,343 7.4 -13.4°
Sets 19:38:41 0° 3° (N) 3,275 8.1 -13.7°
